[[{"header":{"parameterUnit":"m.s-1","parameterCategory":1,"la1":30.2991,"la2":30.254,"lo1":-89.0895,"lo2":-89.0444,"dy":0.0017,"dx":0.0017,"nx":28,"ny":28,"refTime":"2026-01-29T03:00:00:Z","depth":0,"parameterNumber":2,"parameterNumberName":"U-component_of_WINDS"},"data":[0,0,0,0,0,0,0,0,0,0,0,0,0,0,0,0,0,0,0,0,0,0,0,0,0,0,0,0,0,0,0,0,0,0,0,0,0,0,0,0,0,0,0,0,0,0,0,0,0,0,0,0,0,0,0,0,0,0,-0.1447,-0.1448,0,-0.1524,-0.1525,-0.1526,-0.1526,-0.1525,-0.1524,-0.1523,-0.1601,-0.1604,-0.1607,0,0,0,0,0,0,0,0,0,0,0,0,0,-0.1298,-0.1301,-0.1447,-0.1448,-0.1449,-0.1524,-0.1525,-0.1526,-0.1526,-0.1525,-0.1523,-0.1522,-0.16,-0.1604,-0.1608,0,0,0,0,0,0,0,0,0,0,0,0,0,-0.1368,-0.1302,-0.1447,-0.1458,-0.146,-0.1524,-0.1525,-0.1527,-0.1526,-0.1525,-0.1523,-0.1522,-0.1599,-0.1604,-0.1608,-0.1667,0,0,-0.1622,-0.1624,0,0,0,0,0,0,0,0,-0.1364,-0.1373,-0.1455,-0.1457,-0.1459,-0.1514,-0.1502,-0.1574,-0.1526,-0.1501,-0.1523,-0.1521,-0.1574,-0.158,-0.1598,-0.167,-0.1674,-0.1623,-0.1625,-0.1627,-0.1629,0,0,0,0,0,0,0,-0.1359,-0.137,-0.1478,-0.1457,-0.1459,-0.1458,-0.1467,-0.1515,-0.1545,-0.1503,-0.1503,-0.1512,-0.1574,-0.1593,-0.16,-0.1675,-0.1622,-0.1627,-0.1629,-0.1631,-0.1797,-0.1798,0,0,0,0,0,0,-0.1352,-0.1366,-0.1475,-0.148,-0.1407,-0.1462,-0.1472,-0.1498,-0.1544,-0.155,-0.1513,-0.1512,-0.1586,-0.1594,-0.1603,-0.1672,-0.1627,-0.1632,-0.1634,-0.1795,-0.1797,-0.1799,0,0,0,0,0,0,-0.1349,-0.1362,-0.1472,-0.1423,-0.1437,-0.1467,-0.1496,-0.15,-0.1519,-0.1552,-0.1557,-0.1528,-0.1586,-0.1596,-0.165,-0.1675,-0.1634,-0.1638,-0.1793,-0.1796,-0.1798,-0.1814,0,0,0,0,0,0,-0.1345,-0.1361,-0.1384,-0.1424,-0.144,-0.1519,-0.1498,-0.1503,-0.1527,-0.1526,-0.1567,-0.1572,-0.1585,-0.1643,-0.1655,-0.1681,-0.1641,-0.1791,-0.1794,-0.1797,-0.1811,-0.1816,-0.1821,0,0,0,0,0,-0.1339,-0.1386,-0.1385,-0.1398,-0.1469,-0.1521,-0.153,-0.1544,-0.1529,-0.1552,-0.1573,-0.1571,-0.1671,-0.1649,-0.1662,-0.1689,-0.1789,-0.1793,-0.1797,-0.1809,-0.1815,-0.1821,0,0,0,0,0,0,-0.1349,-0.1391,-0.1391,-0.1452,-0.1482,-0.152,-0.155,-0.1551,-0.1586,-0.1584,-0.1599,-0.1609,-0.1662,-0.1681,-0.1656,-0.1747,-0.1728,-0.1735,-0.1733,-0.1739,-0.1744,-0.1738,-0.1645,0,0,0,0,0,-0.1358,-0.1396,-0.1431,-0.1481,-0.1497,-0.1521,-0.1544,-0.1551,-0.1584,-0.1597,-0.1622,-0.1653,-0.1692,-0.1717,-0.1754,-0.1814,-0.1822,-0.1839,-0.1844,-0.1848,-0.1853,-0.1884,-0.1892,-0.1811,-0.1811,-0.1811,0,0,-0.1377,-0.1405,-0.1428,-0.1484,-0.1509,-0.1547,-0.1532,-0.1574,-0.1603,-0.1604,-0.1656,-0.1675,-0.1711,-0.1768,-0.1794,-0.1785,-0.1877,-0.1853,-0.1855,-0.1859,-0.1889,-0.1896,-0.1903,-0.1814,-0.1813,-0.1813,0,0,-0.1432,-0.1457,-0.1501,-0.1526,-0.1563,-0.1578,-0.1589,-0.1626,-0.1639,-0.1691,-0.1692,-0.1726,-0.1792,-0.1817,-0.1839,-0.19,-0.1899,-0.1912,-0.1938,-0.1968,-0.1974,-0.198,-0.2,-0.2008,-0.1917,-0.1917,-0.1917,0,-0.1451,-0.151,-0.1523,-0.1565,-0.1589,-0.1591,-0.1634,-0.1658,-0.1705,-0.1721,-0.1711,-0.1792,-0.1817,-0.1878,-0.1893,-0.1911,-0.1922,-0.1907,-0.1972,-0.1978,-0.1984,-0.2003,-0.2011,-0.1918,-0.1918,-0.1918,-0.1918,0,-0.153,-0.1571,-0.1602,-0.1647,-0.1674,-0.1717,-0.1736,-0.1761,-0.1766,-0.1782,-0.1835,-0.1864,-0.1906,-0.1921,-0.1927,-0.1983,-0.1976,-0.1969,-0.195,-0.1992,-0.2011,-0.2019,-0.192,-0.192,-0.1919,-0.1919,0,0,-0.1594,-0.1645,-0.1656,-0.1675,-0.1716,-0.1747,-0.1789,-0.183,-0.1851,-0.1883,-0.1918,-0.1973,-0.1965,-0.1989,-0.1998,-0.2024,-0.2069,-0.2014,-0.2015,-0.2022,-0.2131,-0.2135,-0.2144,-0.2068,-0.207,-0.2071,-0.2127,0,-0.1652,-0.1727,-0.1739,-0.1804,-0.1841,-0.1842,-0.1878,-0.1907,-0.1922,-0.1955,-0.1972,-0.201,-0.1998,-0.2013,-0.2039,-0.2058,-0.2091,-0.2054,-0.21,-0.2101,-0.209,-0.2154,-0.216,-0.2211,-0.2135,-0.2136,-0.2137,0,-0.173,-0.1763,-0.1832,-0.1865,-0.1881,-0.1914,-0.1951,-0.1983,-0.2014,-0.2023,-0.2049,-0.2054,-0.2096,-0.2075,-0.2133,-0.2107,-0.2126,-0.2138,-0.2141,-0.2145,-0.2121,-0.2159,-0.2228,-0.2235,-0.2149,-0.2148,-0.2147,0,-0.1768,-0.183,-0.1878,-0.1895,-0.1936,-0.1959,-0.1977,-0.2007,-0.2029,-0.2062,-0.2077,-0.2114,-0.2134,-0.2162,-0.2176,-0.216,-0.2232,-0.2212,-0.2239,-0.2239,-0.2254,-0.2253,-0.2326,-0.2268,-0.2268,-0.2268,-0.2268,0,-0.1831,-0.1872,-0.1896,-0.1925,-0.1971,-0.1985,-0.203,-0.2047,-0.2073,-0.2105,-0.2109,-0.2139,-0.2156,-0.2189,-0.22,-0.2244,-0.2254,-0.2262,-0.2264,-0.2261,-0.226,-0.2273,-0.227,-0.227,-0.227,-0.2269,-0.2269,0,-0.1881,-0.1898,-0.1951,-0.1985,-0.1994,-0.2026,-0.2055,-0.2083,-0.2098,-0.2139,-0.2149,-0.2172,-0.221,-0.2227,-0.2274,-0.2281,-0.2332,-0.2332,-0.2321,-0.2322,-0.2347,-0.2344,-0.2431,-0.2443,-0.2378,-0.2379,-0.2379,0,-0.192,-0.1951,-0.1988,-0.201,-0.2028,-0.2064,-0.2087,-0.21,-0.2124,-0.2161,-0.2185,-0.2222,-0.2254,-0.2314,-0.2334,-0.237,-0.237,-0.2398,-0.2376,-0.2371,-0.2369,-0.2367,-0.2369,-0.2402,-0.2403,-0.2403,-0.2404,0,-0.1986,-0.1992,-0.2026,-0.2061,-0.2089,-0.2118,-0.2146,-0.2164,-0.2182,-0.2208,-0.2246,-0.227,-0.2317,-0.2355,-0.2391,-0.2408,-0.2409,-0.2411,-0.2418,-0.2415,-0.2407,-0.241,-0.2331,-0.2409,-0.2408,-0.2408,-0.2407,-0.2407,-0.2031,-0.2058,-0.2088,-0.2124,-0.2146,-0.2172,-0.22,-0.2218,-0.225,-0.2289,-0.2295,-0.2336,-0.2365,-0.2413,-0.2432,-0.2463,-0.2456,-0.2468,-0.2471,-0.2474,-0.2474,-0.2403,-0.247,-0.247,-0.247,-0.247,-0.247,0,-0.2096,-0.2114,-0.2148,-0.2187,-0.2215,-0.2212,-0.2243,-0.2266,-0.2302,-0.2329,-0.2359,-0.2402,-0.2438,-0.246,-0.2496,-0.2516,-0.2517,-0.2525,-0.2523,-0.2527,-0.2479,-0.2468,-0.2523,-0.2523,-0.2523,-0.2523,-0.2523,-0.2523,-0.2133,-0.2179,-0.2188,-0.2245,-0.2263,-0.2303,-0.232,-0.2344,-0.2365,-0.2413,-0.2442,-0.2456,-0.2481,-0.2518,-0.255,-0.2555,-0.2568,-0.2576,-0.2581,-0.2536,-0.253,-0.2525,-0.2515,-0.2579,-0.2579,-0.2625,-0.2626,-0.2626]},{"header":{"parameterUnit":"m.s-1","parameterCategory":1,"la1":30.2991,"la2":30.254,"lo1":-89.0895,"lo2":-89.0444,"dy":0.0017,"dx":0.0017,"nx":28,"ny":28,"refTime":"2026-01-29T03:00:00:Z","depth":0,"parameterNumber":3,"parameterNumberName":"V-component_of_WINDS"},"data":[0,0,0,0,0,0,0,0,0,0,0,0,0,0,0,0,0,0,0,0,0,0,0,0,0,0,0,0,0,0,0,0,0,0,0,0,0,0,0,0,0,0,0,0,0,0,0,0,0,0,0,0,0,0,0,0,0,0,-2.6331,-2.6333,0,-2.6456,-2.6457,-2.6459,-2.646,-2.6458,-2.6457,-2.6455,-2.658,-2.6584,-2.6589,0,0,0,0,0,0,0,0,0,0,0,0,0,-2.6091,-2.6095,-2.6331,-2.6333,-2.6334,-2.6456,-2.6457,-2.6459,-2.646,-2.6458,-2.6456,-2.6454,-2.6578,-2.6584,-2.659,0,0,0,0,0,0,0,0,0,0,0,0,0,-2.6203,-2.6097,-2.6331,-2.6349,-2.6352,-2.6455,-2.6457,-2.6459,-2.646,-2.6458,-2.6456,-2.6453,-2.6576,-2.6583,-2.659,-2.6682,0,0,-2.6612,-2.6616,0,0,0,0,0,0,0,0,-2.6197,-2.6212,-2.6345,-2.6348,-2.6352,-2.644,-2.6418,-2.6534,-2.6461,-2.6419,-2.6455,-2.6452,-2.6535,-2.6545,-2.6574,-2.6688,-2.6694,-2.6613,-2.6617,-2.6621,-2.6623,0,0,0,0,0,0,0,-2.6189,-2.6207,-2.638,-2.6347,-2.6351,-2.635,-2.6364,-2.644,-2.6489,-2.6423,-2.6423,-2.6438,-2.6536,-2.6567,-2.6577,-2.6695,-2.6613,-2.6619,-2.6624,-2.6627,-2.689,-2.6893,0,0,0,0,0,0,-2.6178,-2.62,-2.6376,-2.6384,-2.6267,-2.6357,-2.6372,-2.6414,-2.6488,-2.6497,-2.644,-2.6438,-2.6556,-2.6568,-2.6581,-2.6693,-2.662,-2.6627,-2.6631,-2.6888,-2.6891,-2.6894,0,0,0,0,0,0,-2.6173,-2.6194,-2.6371,-2.6292,-2.6315,-2.6363,-2.6411,-2.6418,-2.6448,-2.6501,-2.6509,-2.6463,-2.6554,-2.6571,-2.6657,-2.6697,-2.663,-2.6637,-2.6884,-2.6889,-2.6892,-2.6918,0,0,0,0,0,0,-2.6166,-2.6192,-2.6228,-2.6293,-2.6319,-2.6446,-2.6413,-2.6422,-2.6461,-2.6459,-2.6524,-2.6533,-2.6554,-2.6646,-2.6664,-2.6706,-2.6643,-2.6881,-2.6886,-2.6891,-2.6914,-2.6922,-2.693,0,0,0,0,0,-2.6157,-2.623,-2.623,-2.6251,-2.6366,-2.6449,-2.6463,-2.6487,-2.6464,-2.6501,-2.6534,-2.6531,-2.669,-2.6655,-2.6675,-2.672,-2.6879,-2.6885,-2.6891,-2.691,-2.692,-2.6929,0,0,0,0,0,0,-2.6167,-2.6239,-2.6239,-2.6335,-2.6386,-2.6449,-2.6495,-2.6497,-2.6555,-2.655,-2.6576,-2.6591,-2.6676,-2.6707,-2.6667,-2.6812,-2.6782,-2.6792,-2.6789,-2.68,-2.6808,-2.6798,-2.6649,0,0,0,0,0,-2.618,-2.6243,-2.6302,-2.6381,-2.6406,-2.6446,-2.6483,-2.6497,-2.655,-2.6571,-2.6611,-2.6662,-2.6723,-2.6763,-2.6823,-2.6918,-2.6932,-2.6959,-2.6967,-2.6973,-2.6981,-2.7033,-2.7045,-2.6914,-2.6914,-2.6913,0,0,-2.6209,-2.6255,-2.6293,-2.6384,-2.6425,-2.6488,-2.6464,-2.6532,-2.6579,-2.6581,-2.6665,-2.6696,-2.6754,-2.6845,-2.6887,-2.6873,-2.7021,-2.6981,-2.6985,-2.699,-2.704,-2.7053,-2.7064,-2.6918,-2.6917,-2.6916,0,0,-2.6292,-2.6334,-2.6404,-2.6446,-2.6508,-2.6534,-2.6551,-2.6614,-2.6635,-2.672,-2.6723,-2.6778,-2.6884,-2.6925,-2.6959,-2.7058,-2.7057,-2.7077,-2.7118,-2.7168,-2.7179,-2.7188,-2.7222,-2.7235,-2.7085,-2.7085,-2.7085,0,-2.6319,-2.6415,-2.644,-2.6508,-2.6547,-2.6553,-2.6624,-2.6662,-2.6741,-2.6767,-2.6751,-2.6883,-2.6923,-2.7023,-2.7047,-2.7075,-2.7094,-2.7069,-2.7176,-2.7185,-2.7194,-2.7227,-2.724,-2.7087,-2.7087,-2.7087,-2.7087,0,-2.6444,-2.6511,-2.656,-2.6636,-2.6681,-2.675,-2.6784,-2.6826,-2.6836,-2.6864,-2.6949,-2.6997,-2.7066,-2.7091,-2.7101,-2.7193,-2.7182,-2.717,-2.714,-2.7208,-2.724,-2.7253,-2.709,-2.7089,-2.7089,-2.7088,0,0,-2.6537,-2.6626,-2.6644,-2.6678,-2.6748,-2.6799,-2.6868,-2.6936,-2.6971,-2.7025,-2.7082,-2.7172,-2.7161,-2.7201,-2.7215,-2.7259,-2.7333,-2.7242,-2.7244,-2.7257,-2.7436,-2.7444,-2.7458,-2.7333,-2.7336,-2.7338,-2.7431,0,-2.6627,-2.6751,-2.6775,-2.6881,-2.6943,-2.6949,-2.7009,-2.7057,-2.7085,-2.714,-2.717,-2.7232,-2.7214,-2.7238,-2.7282,-2.7315,-2.737,-2.7309,-2.7386,-2.7388,-2.737,-2.7475,-2.7483,-2.7569,-2.7443,-2.7445,-2.7447,0,-2.6749,-2.6807,-2.692,-2.698,-2.7007,-2.706,-2.7124,-2.7177,-2.7232,-2.7249,-2.7293,-2.7302,-2.7373,-2.7339,-2.7436,-2.7394,-2.7427,-2.7448,-2.7452,-2.7459,-2.7421,-2.7484,-2.7597,-2.7609,-2.7467,-2.7465,-2.7464,0,-2.6804,-2.691,-2.6991,-2.702,-2.7093,-2.7131,-2.7163,-2.7215,-2.7254,-2.731,-2.7336,-2.7399,-2.7433,-2.7481,-2.7507,-2.748,-2.7601,-2.757,-2.7616,-2.7616,-2.7641,-2.7639,-2.776,-2.7663,-2.7663,-2.7663,-2.7663,0,-2.6902,-2.6971,-2.7017,-2.7067,-2.7143,-2.717,-2.7245,-2.7276,-2.7322,-2.7378,-2.7387,-2.7438,-2.747,-2.7525,-2.7546,-2.7622,-2.7638,-2.7653,-2.7657,-2.7651,-2.7649,-2.7673,-2.7667,-2.7666,-2.7666,-2.7665,-2.7664,0,-2.6977,-2.7011,-2.7099,-2.7161,-2.7178,-2.7232,-2.7285,-2.7332,-2.736,-2.743,-2.7447,-2.749,-2.7556,-2.7587,-2.7668,-2.7682,-2.7769,-2.7769,-2.775,-2.7752,-2.7796,-2.7791,-2.7935,-2.7955,-2.7846,-2.7847,-2.7848,0,-2.7037,-2.709,-2.7157,-2.7196,-2.7229,-2.729,-2.733,-2.7358,-2.74,-2.7465,-2.7505,-2.7572,-2.7626,-2.7731,-2.7768,-2.783,-2.7832,-2.7879,-2.7841,-2.7834,-2.7832,-2.7828,-2.7833,-2.7885,-2.7886,-2.7887,-2.7888,0,-2.7139,-2.7153,-2.7211,-2.7276,-2.7324,-2.7376,-2.7426,-2.7457,-2.7492,-2.7538,-2.7606,-2.7649,-2.7732,-2.7797,-2.7862,-2.7893,-2.7896,-2.7899,-2.7913,-2.7907,-2.7894,-2.7901,-2.7768,-2.7895,-2.7895,-2.7894,-2.7894,-2.7893,-2.7208,-2.7255,-2.731,-2.7374,-2.7416,-2.7463,-2.7511,-2.7544,-2.7602,-2.7672,-2.7685,-2.7757,-2.7809,-2.7896,-2.793,-2.7986,-2.7975,-2.7995,-2.8,-2.8005,-2.8007,-2.7885,-2.7998,-2.7998,-2.7998,-2.7997,-2.7997,0,-2.731,-2.7345,-2.7405,-2.7476,-2.7526,-2.7526,-2.7581,-2.7623,-2.7687,-2.7736,-2.779,-2.7867,-2.793,-2.7973,-2.8037,-2.8073,-2.8076,-2.8089,-2.8086,-2.8093,-2.8013,-2.7994,-2.8086,-2.8086,-2.8086,-2.8086,-2.8086,-2.8086,-2.7369,-2.7448,-2.7469,-2.7568,-2.7603,-2.7675,-2.7707,-2.775,-2.7789,-2.7875,-2.7928,-2.7956,-2.8002,-2.807,-2.8127,-2.8138,-2.8161,-2.8174,-2.8184,-2.8108,-2.8099,-2.809,-2.8073,-2.8179,-2.8179,-2.826,-2.8261,-2.8261]}]]